Regional Weather Roundup
Issued by NWS

Home | Current Version | Previous Version | Graphics & Text | Print | Product List | Glossary On
Versions: 1 2 3 4 5 6 7 8 9 10 11 12 13 14 15 16 17 18 19 20 21 22 23 24 25 26 27 28 29 30 31 32 33 34 35 36 37 38 39 40 41 42 43 44 45 46 47 48 49 50
000
ASUS43 KLMK 251602
RWRKY
KENTUCKY REGIONAL WEATHER ROUNDUP
NATIONAL WEATHER SERVICE LOUISVILLE KY
1200 PM EDT MON JUL 25 2016

NOTE "FAIR" INDICATES FEW OR NO CLOUDS BELOW 12,000 FEET
WITH NO SIGNIFICANT WEATHER AND/OR OBSTRUCTIONS TO VISIBILITY.

KYZ001>023-026-027-061>063-070>075-251700-
WESTERN AND SOUTH CENTRAL KENTUCKY

CITY           SKY/WX    TMP DP  RH WIND       PRES   REMARKS
PADUCAH        PTSUNNY   88  76  67 SW9       30.01R HX  99
HENDERSON      CLOUDY    90  79  70 SW6       30.00R HX 105
OWENSBORO      CLOUDY    91  80  70 S7        30.02R HX 108
HOPKINSVILLE   SUNNY     89  76  65 SW10      30.03S HX 101
BOWLING GREEN  CLOUDY    90  76  63 SW8       30.04R HX 101
GLASGOW        NOT AVBL
$$

KYZ024-025-028>034-038-045-046-053-251700-
NORTH CENTRAL KENTUCKY

CITY           SKY/WX    TMP DP  RH WIND       PRES   REMARKS
LOUISVILLE/SDF CLOUDY    91  75  59 VRB3      30.01R HX 101
LOUISVILLE/LOU CLOUDY    91  74  57 SW8       30.02R HX 100
FORT KNOX      MOSUNNY   88  76  67 SW7       30.02R HX  99
$$

KYZ035>037-039>044-047>052-055>060-089>105-251700-
NORTHEAST KENTUCKY

CITY           SKY/WX    TMP DP  RH WIND       PRES   REMARKS
LEXINGTON      CLOUDY    89  74  60 SW9       30.06R HX  98
COVINGTON      CLOUDY    90  75  61 W10       30.03R HX 100
FRANKFORT      MOSUNNY   90  75  61 W8        30.03R HX 100
$$

KYZ054-064>069-076>088-106>120-251700-
SOUTHEAST KENTUCKY

CITY           SKY/WX    TMP DP  RH WIND       PRES   REMARKS
JACKSON        MOSUNNY   87  76  69 CALM      30.08F HX  97
LONDON         MOSUNNY   88  71  57 SW8       30.08R HX  94
SOMERSET       CLOUDY    86  72  62 SW6       30.08S HX  92
MIDDLESBORO    PTSUNNY   86  74  68 CALM      30.09S HX  94
MONTICELLO     SUNNY    N/A N/A N/A W10       30.09R
$$





USA.gov is the U.S. government's official web portal to all federal, state and local government web resources and services.